Regional Weather Roundup
Issued by NWS

Home | Current Version | Previous Version | Text Only | Print | Product List | Glossary Off
Versions: 1 2 3 4 5 6 7 8 9 10 11 12 13 14 15 16 17 18 19 20 21 22 23 24 25 26 27

000
ASUS45 KCYS 250510
RWRWY

WYOMING REGIONAL WEATHER ROUNDUP
NATIONAL WEATHER SERVICE CHEYENNE WY
1100 PM MDT SUN JUL 24 2016

NOTE:  "FAIR" INDICATES FEW OR NO CLOUDS BELOW 12,000 FEET
WITH NO SIGNIFICANT WEATHER AND/OR OBSTRUCTIONS TO VISIBILITY.

WYZ001-250600-
YELLOWSTONE NATIONAL PARK

CITY           SKY/WX    TMP DP  RH WIND       PRES   REMARKS
LK YELLOWSTONE   N/A     49  32  52 CALM      30.37S
W YELLOWSTONE  NOT AVBL

$$
WYZ002>013-054>058-071-098>099-250600-
NORTHERN WYOMING

CITY           SKY/WX    TMP DP  RH WIND       PRES   REMARKS
JACKSON        FAIR      57  37  47 N5        30.25R
CODY           FAIR      70  36  28 S3        30.14R
GREYBULL       FAIR      76  36  23 SE5       30.02S
WORLAND        FAIR      72  30  21 CALM      30.04R
SHERIDAN       FAIR      64  48  56 SW5       30.07S
BUFFALO        FAIR      69  40  34 W8        30.15S
GILLETTE         N/A     76  47  35 MISG      30.11R
HULETT         FAIR      68  46  45 SE8       30.12S
NEWCASTLE      FAIR      73  43  33 SE16      30.16R

$$
WYZ014>020-022>026-101>103-250600-
CENTRAL WYOMING

CITY           SKY/WX    TMP DP  RH WIND       PRES   REMARKS
BIG PINEY      FAIR      58  26  29 N12       30.29R
PINEDALE       FAIR      52  36  54 NW6       30.30S
DUBOIS         FAIR      63  21  20 CALM      30.29R
LANDER         FAIR      71  32  23 E5        30.17R
RIVERTON       FAIR      75  26  16 NE3       30.14S
CASPER         FAIR      71  35  26 E8        30.15S
DOUGLAS          N/A    N/A N/A N/A MISG      30.17S

$$
WYZ021-027>030-104>119-250600-
SOUTHERN WYOMING

CITY           SKY/WX    TMP DP  RH WIND       PRES   REMARKS
EVANSTON       FAIR      66  18  15 SE7       30.30R
KEMMERER         N/A    N/A N/A N/A N10       30.30F
FORT BRIDGER   FAIR      69  16  13 W6        30.31S
ROCK SPRINGS   FAIR      69  11  10 W8        30.25S
DIXON          FAIR      65  37  35 E8        30.26S
RAWLINS        FAIR      62  25  24 NW12      30.25S
SARATOGA       FAIR      61  23  23 S10G20    30.28S
LARAMIE        FAIR      58  54  86 SE23      30.32R
CHEYENNE       FAIR      60  54  80 S14       30.32R
TORRINGTON     FAIR      65  53  65 SE10      30.18R
PINE BLUFFS    FAIR      57  54  88 SW7       30.28R

$$




USA.gov is the U.S. government's official web portal to all federal, state and local government web resources and services.